Location: Sternwarte-Kraichtal
(49.1689°N, 8.6996°E)
Time: 20:29:25
(UTC+02:00)

Vanguard 2 Rocket - Pass Details

Date: 31 May 2022
Orbit: 553 x 3323 km, 32.9° (Epoch: 02 July)

Event Time Altitude Azimuth Distance (km) Brightness Sun altitude
Rises 13:24:02 0° 230° (SW) 7,073 11.7 62.8°
Reaches altitude 10° 13:29:05 10° 223° (SW) 6,203 11.6 62.8°
Maximum altitude 13:46:43 40° 164° (SSE) 4,110 11.5 62.4°
Drops below altitude 10° 14:01:21 10° 103° (ESE) 5,209 10.9 61.7°
Sets 14:05:07 0° 96° (E) 5,889 11.0 61.5°
